Location: *
(44.3925°N, 5.4708°E)
Time: 12:07:43
(UTC+00:00)

BREEZE-M DEB (TANK) - Pass Details

Date: 18 September 2019
Orbit: 305 x 14273 km, 49.5° (Epoch: 17 October)

Event Time Altitude Azimuth Distance (km) Brightness Sun altitude
Rises 17:44:08 0° 292° (WNW) 2,611 7.8 -0.9°
Reaches altitude 10° 17:45:31 10° 296° (WNW) 2,010 6.9 -1.1°
Maximum altitude 17:49:37 65° 20° (NNE) 1,229 4.4 -1.9°
Drops below altitude 10° 18:05:01 10° 102° (ESE) 6,997 7.5 -4.6°
Enters shadow 18:09:30 - 104° (ESE) 8,545 7.9 -5.4°
